FW9581 Weather Reports


time (UTC)temp
C
wind
direction
speed
KPH
gust
KPH
rain 1hr
cm
rain 24hr
cm
rain mn
cm
humidity
%
barometer
mb
20260504050006 14 199 0.0 4.8 0.00 0.00 0.00 84 1020.2
20260504044604 13 199 0.0 4.8 0.00 0.00 0.00 86 1020.0
20260504043108 13 208 0.0 4.8 0.00 0.00 0.00 86 1019.8
20260504041621 13 208 0.0 4.8 0.00 0.00 0.00 86 1019.9
20260504040128 13 208 0.0 4.8 0.00 0.00 0.00 86 1019.7
20260504034509 13 208 1.6 6.4 0.00 0.00 0.00 86 1019.6
20260504033101 13 219 0.0 8.0 0.00 0.00 0.00 86 1019.6
20260504031626 13 222 1.6 8.0 0.00 0.00 0.00 86 1019.6
20260504030002 13 230 0.0 6.4 0.00 0.00 0.00 86 1019.7
20260504024606 13 230 0.0 6.4 0.00 0.00 0.00 85 1019.8
20260504023123 13 230 0.0 4.8 0.00 0.00 0.00 86 1019.9
20260504021635 13 230 0.0 0.0 0.00 0.00 0.00 85 1020.0
20260504020006 13 230 1.6 4.8 0.00 0.00 0.00 85 1019.8
20260504014523 13 230 1.6 3.2 0.00 0.00 0.00 85 1019.9
20260504013143 13 230 0.0 0.0 0.00 0.00 0.00 85 1019.8
20260504011618 13 230 0.0 1.6 0.00 0.00 0.00 84 1019.9
20260504010136 13 230 0.0 0.0 0.00 0.00 0.00 83 1019.9
20260504004648 13 230 0.0 1.6 0.00 0.00 0.00 83 1019.9
20260504003059 14 230 0.0 4.8 0.00 0.00 0.00 83 1019.9
20260504001614 14 230 0.0 6.4 0.00 0.00 0.00 82 1020.0
20260504000133 14 230 1.6 6.4 0.00 0.00 0.00 82 1020.0
20260503234556 14 230 3.2 4.8 0.00 0.00 0.00 82 1020.0
20260503233111 14 230 0.0 3.2 0.00 0.00 0.00 82 1020.1
20260503231636 14 230 1.6 6.4 0.00 0.00 0.00 81 1020.3
20260503230053 14 230 3.2 6.4 0.00 0.00 0.00 81 1020.2
20260503224620 15 230 1.6 6.4 0.00 0.00 0.00 80 1020.3
20260503223135 15 230 1.6 6.4 0.00 0.00 0.00 81 1020.3
20260503221601 15 230 0.0 4.8 0.00 0.00 0.00 80 1020.2
20260503220023 15 230 1.6 4.8 0.00 0.00 0.00 80 1020.2
20260503214623 15 230 1.6 6.4 0.00 0.00 0.00 80 1020.2
20260503213004 15 230 3.2 8.0 0.00 0.00 0.00 80 1020.2
20260503211520 15 230 1.6 6.4 0.00 0.00 0.00 80 1020.1
20260503210006 15 230 1.6 6.4 0.00 0.00 0.00 80 1020.1
20260503204621 15 230 3.2 8.0 0.00 0.00 0.00 80 1020.1
20260503203128 15 230 0.0 6.4 0.00 0.00 0.00 80 1020.1
20260503201508 15 230 1.6 9.7 0.00 0.00 0.00 79 1020.1
20260503200121 15 239 3.2 12.9 0.00 0.00 0.00 77 1020.2
20260503194632 15 242 6.4 12.9 0.00 0.00 0.00 77 1020.0
20260503193144 15 245 8.0 17.7 0.00 0.00 0.00 76 1019.9
20260503191520 15 241 8.0 16.1 0.00 0.00 0.00 76 1019.6
20260503190027 15 243 6.4 12.9 0.00 0.00 0.00 75 1019.6
20260503184626 15 218 4.8 12.9 0.00 0.00 0.00 74 1019.6
20260503183129 15 224 6.4 14.5 0.00 0.00 0.00 73 1019.4
20260503181556 15 243 6.4 16.1 0.00 0.00 0.00 71 1019.2
20260503180116 16 232 6.4 17.7 0.00 0.00 0.00 70 1019.0
20260503174627 16 241 11.3 19.3 0.00 0.00 0.00 68 1019.1
20260503173137 16 247 9.7 17.7 0.00 0.00 0.00 67 1018.9
20260503171600 16 246 8.0 14.5 0.00 0.00 0.00 65 1018.7
20260503170119 16 220 9.7 14.5 0.00 0.00 0.00 66 1018.8
20260503160115 17 241 11.3 25.7 0.00 0.00 0.00 60 1019.2
20260503150125 18 268 16.1 27.4 0.00 0.00 0.00 60 1019.5
20260503140135 18 255 14.5 32.2 0.00 0.00 0.00 55 1019.8
20260503130139 20 245 12.9 27.4 0.00 0.00 0.00 47 1019.9
20260503090137 20 247 4.8 11.3 0.00 0.00 0.00 36 1021.0
20260503081608 18 1 0.0 6.4 0.00 0.00 0.00 42 1021.1
20260503080122 -17 0.0 0.0 0.00 0.00 0.00 1021.2
20260503071615 16 346 1.6 8.0 0.00 0.00 0.00 53 1021.4
20260503070124 16 346 3.2 8.0 0.00 0.00 0.00 59 1021.4
20260503054506 15 241 0.0 1.6 0.00 0.00 0.00 52 1021.3
20260503053058 14 240 0.0 0.0 0.00 0.00 0.00 58 1021.1